TimeCDT,TemperatureF,Dew PointF,Humidity,Sea Level PressureIn,VisibilityMPH,Wind Direction,Wind SpeedMPH,Gust SpeedMPH,PrecipitationIn,Events,Conditions,WindDirDegrees,DateUTC
12:15 AM,62.6,55.4,77,30.05,10.0,SSE,4.6,-,N/A,,Clear,150,2012-10-04 05:15:00
12:35 AM,62.6,53.6,72,30.05,10.0,SSE,4.6,-,N/A,,Clear,150,2012-10-04 05:35:00
12:55 AM,60.8,53.6,77,30.05,10.0,SE,4.6,-,N/A,,Clear,140,2012-10-04 05:55:00
1:15 AM,60.8,55.4,82,30.05,10.0,SSE,5.8,-,N/A,,Clear,150,2012-10-04 06:15:00
1:35 AM,60.8,53.6,77,30.05,10.0,SE,4.6,-,N/A,,Clear,140,2012-10-04 06:35:00
2:15 AM,60.8,55.4,82,30.05,10.0,SE,4.6,-,N/A,,Clear,140,2012-10-04 07:15:00
2:35 AM,60.8,55.4,82,30.05,10.0,SE,4.6,-,N/A,,Clear,140,2012-10-04 07:35:00
2:55 AM,60.8,55.4,82,30.05,10.0,SSE,5.8,-,N/A,,Clear,150,2012-10-04 07:55:00
3:15 AM,60.8,55.4,82,30.05,10.0,SSE,5.8,-,N/A,,Clear,150,2012-10-04 08:15:00
3:35 AM,60.8,55.4,82,30.05,10.0,SSE,5.8,-,N/A,,Clear,150,2012-10-04 08:35:00
3:55 AM,60.8,55.4,82,30.04,10.0,SSE,6.9,-,N/A,,Clear,160,2012-10-04 08:55:00
4:15 AM,60.8,55.4,82,30.05,10.0,SSE,5.8,-,N/A,,Clear,160,2012-10-04 09:15:00
4:35 AM,59.0,55.4,88,30.05,10.0,South,4.6,-,N/A,,Clear,170,2012-10-04 09:35:00
4:55 AM,59.0,55.4,88,30.06,10.0,SSE,5.8,-,N/A,,Clear,160,2012-10-04 09:55:00
5:15 AM,59.0,55.4,88,30.06,10.0,SSE,5.8,-,N/A,,Clear,150,2012-10-04 10:15:00
5:35 AM,59.0,55.4,88,30.07,10.0,SSE,4.6,-,N/A,,Clear,150,2012-10-04 10:35:00
5:55 AM,59.0,55.4,88,30.08,10.0,SSE,4.6,-,N/A,,Clear,150,2012-10-04 10:55:00
6:15 AM,59.0,55.4,88,30.09,10.0,SE,4.6,-,N/A,,Clear,130,2012-10-04 11:15:00
6:35 AM,59.0,55.4,88,30.09,10.0,SE,5.8,-,N/A,,Clear,130,2012-10-04 11:35:00
6:55 AM,59.0,55.4,88,30.09,10.0,SE,5.8,-,N/A,,Clear,130,2012-10-04 11:55:00
7:15 AM,59.0,55.4,88,30.10,10.0,SE,4.6,-,N/A,,Clear,130,2012-10-04 12:15:00
7:35 AM,59.0,55.4,88,30.11,10.0,ESE,5.8,-,N/A,,Clear,120,2012-10-04 12:35:00
7:55 AM,59.0,55.4,88,30.12,10.0,SE,5.8,-,N/A,,Clear,130,2012-10-04 12:55:00
8:15 AM,60.8,59.0,94,30.12,10.0,SE,6.9,-,N/A,,Clear,130,2012-10-04 13:15:00
8:35 AM,62.6,60.8,94,30.13,10.0,SE,6.9,-,N/A,,Mostly Cloudy,130,2012-10-04 13:35:00
8:55 AM,64.4,60.8,88,30.13,10.0,SE,6.9,-,N/A,,Mostly Cloudy,140,2012-10-04 13:55:00
9:15 AM,66.2,60.8,83,30.14,10.0,SE,9.2,-,N/A,,Mostly Cloudy,140,2012-10-04 14:15:00
9:35 AM,68.0,60.8,78,30.14,10.0,SE,8.1,-,N/A,,Scattered Clouds,140,2012-10-04 14:35:00
9:55 AM,69.8,60.8,73,30.15,10.0,SE,8.1,-,N/A,,Clear,130,2012-10-04 14:55:00
10:15 AM,71.6,60.8,69,30.16,10.0,SE,9.2,-,N/A,,Clear,140,2012-10-04 15:15:00
10:35 AM,73.4,60.8,65,30.16,10.0,SE,8.1,-,N/A,,Clear,140,2012-10-04 15:35:00
11:15 AM,77.0,60.8,57,30.16,10.0,SE,12.7,-,N/A,,Clear,140,2012-10-04 16:15:00
11:35 AM,78.8,62.6,57,30.15,10.0,SE,13.8,17.3,N/A,,Clear,140,2012-10-04 16:35:00
11:55 AM,78.8,62.6,57,30.15,10.0,SE,10.4,16.1,N/A,,Scattered Clouds,140,2012-10-04 16:55:00
12:15 PM,80.6,62.6,54,30.15,10.0,SSE,11.5,16.1,N/A,,Mostly Cloudy,150,2012-10-04 17:15:00
12:35 PM,80.6,62.6,54,30.14,10.0,SSE,11.5,-,N/A,,Scattered Clouds,150,2012-10-04 17:35:00
12:55 PM,82.4,64.4,54,30.14,10.0,South,11.5,-,N/A,,Scattered Clouds,180,2012-10-04 17:55:00
1:15 PM,82.4,64.4,54,30.13,10.0,SSE,11.5,19.6,N/A,,Mostly Cloudy,160,2012-10-04 18:15:00
1:35 PM,82.4,64.4,54,30.12,10.0,SSE,16.1,19.6,N/A,,Scattered Clouds,160,2012-10-04 18:35:00
1:55 PM,84.2,64.4,51,30.10,10.0,South,12.7,18.4,N/A,,Scattered Clouds,180,2012-10-04 18:55:00
2:15 PM,86.0,64.4,48,30.09,10.0,South,11.5,23.0,N/A,,Scattered Clouds,170,2012-10-04 19:15:00
2:35 PM,86.0,64.4,48,30.08,10.0,South,16.1,20.7,N/A,,Scattered Clouds,170,2012-10-04 19:35:00
2:55 PM,86.0,64.4,48,30.08,10.0,SSE,16.1,23.0,N/A,,Scattered Clouds,160,2012-10-04 19:55:00
3:15 PM,86.0,64.4,48,30.07,10.0,South,12.7,20.7,N/A,,Scattered Clouds,190,2012-10-04 20:15:00
3:35 PM,86.0,64.4,48,30.07,10.0,South,13.8,18.4,N/A,,Mostly Cloudy,170,2012-10-04 20:35:00
3:55 PM,86.0,62.6,45,30.07,10.0,SSW,13.8,18.4,N/A,,Overcast,200,2012-10-04 20:55:00
4:15 PM,86.0,62.6,45,30.07,10.0,South,11.5,-,N/A,,Mostly Cloudy,180,2012-10-04 21:15:00
4:35 PM,86.0,62.6,45,30.07,10.0,SSW,12.7,18.4,N/A,,Mostly Cloudy,200,2012-10-04 21:35:00
5:15 PM,82.4,62.6,51,30.07,10.0,South,9.2,-,N/A,,Mostly Cloudy,180,2012-10-04 22:15:00
5:35 PM,82.4,62.6,51,30.07,10.0,South,8.1,-,N/A,,Overcast,170,2012-10-04 22:35:00
5:55 PM,82.4,62.6,51,30.07,10.0,South,6.9,-,N/A,,Overcast,170,2012-10-04 22:55:00
6:15 PM,82.4,62.6,51,30.07,10.0,South,6.9,-,N/A,,Overcast,170,2012-10-04 23:15:00
6:35 PM,80.6,62.6,54,30.07,10.0,SSE,5.8,-,N/A,,Overcast,160,2012-10-04 23:35:00
6:55 PM,80.6,62.6,54,30.07,10.0,SSE,6.9,-,N/A,,Overcast,150,2012-10-04 23:55:00
7:15 PM,80.6,62.6,54,30.08,10.0,SSE,6.9,-,N/A,,Overcast,150,2012-10-05 00:15:00
7:55 PM,78.8,62.6,57,30.08,10.0,SSE,6.9,-,N/A,,Overcast,150,2012-10-05 00:55:00
8:15 PM,78.8,62.6,57,30.08,10.0,SSE,6.9,-,N/A,,Overcast,150,2012-10-05 01:15:00
8:35 PM,78.8,62.6,57,30.09,10.0,SSE,6.9,-,N/A,,Overcast,160,2012-10-05 01:35:00
9:15 PM,77.0,62.6,61,30.09,10.0,SE,4.6,-,N/A,,Overcast,140,2012-10-05 02:15:00
9:35 PM,77.0,62.6,61,30.09,10.0,SSE,3.5,-,N/A,,Overcast,150,2012-10-05 02:35:00
10:15 PM,77.0,60.8,57,30.10,10.0,Calm,Calm,-,N/A,,Overcast,0,2012-10-05 03:15:00
10:35 PM,75.2,62.6,65,30.10,10.0,Calm,Calm,-,N/A,,Overcast,0,2012-10-05 03:35:00
10:55 PM,75.2,62.6,65,30.11,10.0,NNW,3.5,-,N/A,,Overcast,330,2012-10-05 03:55:00
11:15 PM,73.4,62.6,69,30.11,10.0,NNW,3.5,-,N/A,,Overcast,340,2012-10-05 04:15:00
11:35 PM,73.4,62.6,69,30.10,10.0,Calm,Calm,-,N/A,,Overcast,0,2012-10-05 04:35:00
11:55 PM,71.6,62.6,73,30.10,10.0,NNW,4.6,-,N/A,,Overcast,340,2012-10-05 04:55:00